Location: Newark
(31.7692°N, 106.4397°W)
Time: 19:16:33
(UTC+00:00)

Hubble Space Telescope - Visible Passes

Search period start: 14 December 2019 00:00
Search period end: 24 December 2019 00:00
Orbit: 536 x 540 km, 28.5° (Epoch: 14 December)

Date Brightness Start Highest point End Pass type
(mag) Time Alt. Az. Time Alt. Az. Time Alt. Az.
14 Dec 3.2 11:35:04 16° SSE 11:35:04 16° SSE 11:37:43 10° ESE visible
14 Dec 2.0 13:11:57 10° WSW 13:15:50 40° SSE 13:19:43 10° E visible
15 Dec 3.3 11:25:33 18° SE 11:25:33 18° SE 11:27:27 10° ESE visible
15 Dec 1.7 13:01:15 10° WSW 13:05:12 44° S 13:09:09 10° E visible
16 Dec 3.6 11:15:54 16° ESE 11:15:54 16° ESE 11:17:04 10° ESE visible
16 Dec 1.5 12:51:15 14° WSW 12:54:34 48° S 12:58:34 10° E visible
17 Dec 3.9 11:06:09 13° ESE 11:06:09 13° ESE 11:06:37 10° ESE visible
17 Dec 1.3 12:41:29 22° WSW 12:43:57 52° S 12:47:58 10° E visible
18 Dec 1.2 12:31:40 31° WSW 12:33:19 54° S 12:37:22 10° E visible
19 Dec 1.2 12:21:46 43° SW 12:22:42 54° S 12:26:45 10° ESE visible
20 Dec 1.1 12:11:50 52° SSW 12:12:05 53° S 12:16:08 10° ESE visible
21 Dec 1.4 12:01:52 49° SSE 12:01:52 49° SSE 12:05:29 10° ESE visible
22 Dec 2.0 11:51:54 37° SE 11:51:54 37° SE 11:54:49 10° ESE visible
22 Dec 2.5 13:28:24 10° WSW 13:31:42 23° SSW 13:34:59 10° SSE visible
23 Dec 2.6 11:41:56 27° SE 11:41:56 27° SE 11:44:09 10° ESE visible
23 Dec 2.8 13:18:03 10° WSW 13:21:01 19° SSW 13:23:58 10° SSE visible
